Tracking 26955 objects as of 2-Feb-2023
HD Live streaming from Space Station
objects crossing your sky now

LEMUR 2 LYNSEY-SYMO

Track LEMUR 2 LYNSEY-SYMO now!
10-day predictions
LEMUR 2 LYNSEY-SYMO is classified as:


NORAD ID: 42779
Int'l Code: 2017-036Q
Perigee: 432.2 km
Apogee: 442.1 km
Inclination: 97.2 °
Period: 93.2 minutes
Semi major axis: 6808 km
RCS: Unknown
Launch date: June 23, 2017
Source: United States (US)
Launch site: SRIHARIKOTA (SRI)
Your satellite tracking list
Your tracking list is empty




NASA's NSSDC Master Catalog

Two Line Element Set (TLE):
1 42779U 17036Q   23033.10841970  .00038615  00000-0  80446-3 0  9995
2 42779  97.1758  79.9058 0007223 192.0177 168.0902 15.45464062312545
Source of the keplerian elements: AFSPC